Location: Dannhausen
(51.8650°N, 10.1026°E)
Time: 18:25:07
(UTC+00:00)

Cosmos 1892 - Pass Details

Date: 09 April 2020
Orbit: 503 x 526 km, 82.5° (Epoch: 01 June)

Event Time Altitude Azimuth Distance (km) Brightness Sun altitude
Rises 19:54:22 0° 351° (N) 2,676 7.0 -15.7°
Reaches altitude 10° 19:56:33 10° 354° (N) 1,783 6.0 -15.9°
Maximum altitude 20:00:27 67° 77° (ENE) 577 2.7 -16.4°
Enters shadow 20:02:01 34° 150° (SSE) 893 3.4 -16.6°
